Location: Unspecified
(0.0000°N, 0.0000°E)
Time: 22:06:26
(UTC+00:00)

Explorer 7 - Visible Passes

Search period start: 28 May 2016 00:00
Search period end: 07 June 2016 00:00
Orbit: 487 x 687 km, 50.3° (Epoch: 27 May)

Date Brightness Start Highest point End Pass type
(mag) Time Alt. Az. Time Alt. Az. Time Alt. Az.
01 Jun 8.3 18:30:47 10° SSE 18:33:10 16° SE 18:35:31 10° E visible
01 Jun 9.1 20:10:31 10° WSW 20:12:29 20° W 20:12:29 20° W visible
02 Jun 7.2 18:36:04 10° SSW 18:39:39 35° SE 18:43:08 10° ENE visible
03 Jun 6.6 18:42:11 10° SW 18:46:06 90° NE 18:49:52 10° NE visible
04 Jun 8.4 18:48:56 10° WSW 18:52:31 35° NW 18:55:59 10° NNE visible
05 Jun 10.1 05:11:14 10° N 05:14:44 21° NE 05:18:21 10° ESE visible
05 Jun 9.8 18:56:35 10° W 18:58:55 15° NW 19:01:14 10° NNW visible
06 Jun 8.7 05:16:45 10° NNW 05:21:08 42° NE 05:25:45 10° SE visible
